STARLINK-1471, 45735

Orbit data source: Space-Track

STARLINK-1471, 45735 is a payload satellite owned by SpaceX/Seattle (US) in LEO that was launched on Sat, 13 Jun 2020 UTC via an FALCON 9 launch vehicle from the Air Force Eastern Test Range (AFETR). Payload-class satellites include a variety of spacecraft equipped with specific instruments for various scientific and technological missions. These include communications satellites like Starlink; space stations such as the ISS; scientific satellites like the Hubble; Earth observation satellites from companies like Planet Labs, Umbra, and HawkEye 360; GPS; miniature CubeSats for education and research; and military/defense satellites.

Loading next visibility...
Identifier
45735, 2020-038F
Orbit
LEO
Country
Flag of USUS
Related business
Manufacturer
SpaceX/Seattle
Mission
Partially operational Commercial Communications
Bus & Motor
STARLINK, Unknown motor
Mass
260 kg wet, ~248 kg dry
Launch date (UTC)
2020-06-13 (5 years ago)
Launch vehicle
FALCON 9
Launch site
Air Force Eastern Test Range (AFETR)
Object type
Payload
Rocket body
Debris
Shape & HBR
Box + 1 Pan, 4.4 m
Radar Cross Section
13.562 m², Large (>1 m²)

Expand to show TLE details & history
Last TLE update: 1 day ago

TLE from 1 day ago
0 STARLINK-1471
1 45735U 20038F   25259.69794281  .00039057  00000-0  10345-2 0  9995
2 45735  53.0509 248.4879 0003994  43.0586 317.0728 15.37995714290663
Epoch: 2025-09-16T16:45Z
TLE epoch observation values (Epoch: 2025-09-16T16:45:02.258Z)
Latitude
-0.00009°
Longitude
1.34391°
Altitude
450.931 km
Speed
7.644 km/s
True Right ascension
16h 33m 57s
True Declination
0° 00' 00"
Sunlit
Object was in daylight at epoch
Visualization orbit readout
Latitude
Unknown
Longitude
Unknown
Altitude
Unknown
Speed
Unknown
Apparent Right ascension
Unknown
Apparent Declination
Unknown
Sunlit
N/A
Visualization observer readout
Local Sidereal Time
18:49:12
Azimuth
Unknown
Elevation
Unknown
Doppler factor
Unknown
Orbital elements
Apogee altitude
455.04 km
Perigee altitude
449.584 km
Semi-major axis
6,830.449 km
Eccentricity
0.0004
Inclination
53.0509°
RAAN
248.4879°
Arg. of periapsis
43.0586°
True anomaly
317.04162°
Mean anomaly
317.0728°
Eccentric anomaly
317.05721°
Mean motion
3.84476 °/min
Orbital period
93.63 mins
BSTAR
0.0010345
Loading maneuver chart data...
Computing Atmospheric mass density...

Documentation

Showing up to 5 results
|